Home > Weather > Kawartha Lakes > Past weeks

Flag for Canada Past Weather in Kawartha Lakes, Ontario, Canada — Yesterday and Last 2 Weeks

Now
69 °F

Mild.


Feels Like: 69 °F
Forecast: 63 / 85 °F
Wind: 16 mph from Northwest

Location: Lagoon City

Current Time: Jul 26, 2016 at 2:27:12 AM

Latest Report: Jul 26, 2016 at 2:00 AM


Visibility: N/A

Pressure: 29.88 "Hg

Humidity: 74%

Dew Point: 60 °F

Location of Kawartha LakesLocation

Past Weather in Kawartha Lakes — Graph

°F

Kawartha Lakes Temperature Yesterday

Maximum temperature yesterday: 80 °F (at 6:00 PM)
Minimum temperature yesterday: 72 °F (at 11:00 PM)
Average temperature yesterday: 75 °F

High & Low Weather Summary for the Past Weeks

 TemperatureHumidityPressure
High84 °F (Jul 13, 7:00 PM)94% (Jul 17, 5:00 AM)30.28 "Hg (Jul 17, 5:00 AM)
Low52 °F (Jul 17, 6:00 AM)43% (Jul 19, 5:00 PM)29.68 "Hg (Jul 14, 7:00 AM)
Average71 °F69%29.96 "Hg
* Reported Jul 11 1:00 AM — Jul 26 1:00 AM, Kawartha Lakes, Weather by CustomWeather, © 2016

Note: Actual official high and low records may vary slightly from our data, if they occured in-between our weather recording intervals... More about our weather records

Advertising

Kawartha Lakes Weather History for the Previous 24 Hours

Scroll right to see more
 ConditionsComfort  
Time TempWeatherWind HumidityBarometerVisibility
1:00 AM
Tue, Jul 26
70 °FMild.17 mph70%29.88 "HgN/A
12:00 AM71 °FMild.16 mph68%29.87 "HgN/A
11:00 PM
Mon, Jul 25
72 °FMild.15 mph69%29.87 "HgN/A
10:00 PM74 °FMild.12 mph62%29.87 "HgN/A
9:00 PM76 °FMild.17 mph63%29.84 "HgN/A
8:00 PM78 °FWarm.16 mph57%29.82 "HgN/A
7:00 PM79 °FWarm.21 mph52%29.81 "HgN/A
6:00 PM80 °FWarm.22 mph52%29.81 "HgN/A
5:00 PM79 °FWarm.23 mph54%29.81 "HgN/A
4:00 PM79 °FWarm.20 mph52%29.81 "HgN/A
3:00 PM79 °FWarm.14 mph58%29.81 "HgN/A
2:00 PM76 °FMild.10 mph71%29.81 "HgN/A
1:00 PM75 °FMild.17 mph76%29.82 "HgN/A
12:00 PM76 °FMild.15 mph79%29.81 "HgN/A
11:00 AM74 °FMild.13 mph89%29.81 "HgN/A
10:00 AM72 °FMild.16 mph93%29.81 "HgN/A
9:00 AM74 °FMild.15 mph86%29.80 "HgN/A
8:00 AM74 °FMild.14 mph87%29.80 "HgN/A
7:00 AM73 °FMild.13 mph86%29.78 "HgN/A
6:00 AM73 °FMild.10 mph82%29.79 "HgN/A
5:00 AM73 °FMild.16 mph86%29.81 "HgN/A
4:00 AM72 °FMild.20 mph90%29.83 "HgN/A
3:00 AM73 °FMild.10 mph79%29.83 "HgN/A
2:00 AM73 °FMild.16 mph75%29.83 "HgN/A
Weather by CustomWeather, © 2016

See weather overviewHow to use our weather pages